Abilene, TX

6:14 PM CDT on May 22, 2017 (GMT -0500)
Abilene Regional

Weather History for KABI - September, 2013

Change the Weather History Date:

Wednesday, September 11, 2013

  Actual Average Record
Temperature  
Mean Temperature 80 °F 77 °F  
Max Temperature 92 °F 88 °F 105 °F (2000)
Min Temperature 68 °F 66 °F 49 °F (1959)
Degree Days  
Heating Degree Days 0 0  
Month to date heating degree days 0 0  
Since 1 July heating degree days 0 0  
Cooling Degree Days 15 12  
Month to date cooling degree days 201 150  
Year to date cooling degree days 2355 2095  
Growing Degree Days 30 (Base 50)    
Moisture  
Dew Point 62 °F    
Average Humidity 59    
Maximum Humidity 90    
Minimum Humidity 28    
Precipitation  
Precipitation 0.00 in 0.08 in 2.49 in (1989)
Month to date precipitation T 0.88  
Year to date precipitation 16.33 17.84  
Sea Level Pressure  
Sea Level Pressure 30.05 in    
Wind  
Wind Speed 9 mph (SSE)    
Max Wind Speed 20 mph    
Max Gust Speed 25 mph    
Visibility 10 miles    
Events      
T = Trace of Precipitation, MM = Missing Value Source: NWS Daily Summary

Daily Weather History Graph

Daily Weather History Graph

Search for Another Location

Airport or City:

Trip Planner

Search our weather history database for the weather conditions in past years. The results will help you decide how hot, cold, wet, or windy it might be!

Date:

Astronomy

Sep. 11, 2013 Rise Set
Actual Time 7:20 AM CDT 7:49 PM CDT
Civil Twilight 6:55 AM CDT 8:14 PM CDT
Nautical Twilight 6:26 AM CDT 8:43 PM CDT
Astronomical Twilight 5:56 AM CDT 9:12 PM CDT
Moon 1:28 PM CDT (9/11) No Moon Set
Length of Visible Light 13h 18m
Length of Day
12h 29m
Waxing Crescent, 39% of the Moon is Illuminated
Sep 11
Waxing Crescent
Sep 12
First Quarter
Sep 19
Full
Sep 26
Last Quarter
Oct 4
New

Hourly Weather History & Observations

Time (CDT) Temp. Heat Index Dew Point Humidity Pressure Visibility Wind Dir Wind Speed Gust Speed Precip Events Conditions
12:52 AM 73.9 °F - 64.9 °F 73% 30.03 in 10.0 mi South 6.9 mph - N/A   Clear
1:52 AM 72.0 °F - 64.9 °F 78% 30.04 in 10.0 mi SE 6.9 mph - N/A   Clear
2:52 AM 72.0 °F - 64.9 °F 78% 30.04 in 10.0 mi ESE 6.9 mph - N/A   Clear
3:52 AM 70.0 °F - 64.9 °F 84% 30.04 in 10.0 mi SE 8.1 mph - N/A   Clear
4:52 AM 70.0 °F - 66.0 °F 87% 30.03 in 10.0 mi South 4.6 mph - N/A   Clear
5:52 AM 69.1 °F - 64.9 °F 87% 30.04 in 10.0 mi ESE 4.6 mph - N/A   Clear
6:52 AM 68.0 °F - 64.9 °F 90% 30.05 in 10.0 mi SSE 3.5 mph - N/A   Clear
7:52 AM 69.1 °F - 66.0 °F 90% 30.07 in 10.0 mi SE 4.6 mph - N/A   Clear
8:52 AM 72.0 °F - 66.9 °F 84% 30.09 in 10.0 mi SSE 6.9 mph - N/A   Scattered Clouds
8:59 AM 73.4 °F - 66.2 °F 78% 30.16 in 10.0 mi SSE 5.8 mph - N/A   Mostly Cloudy
9:43 AM 77.0 °F - 66.2 °F 69% 30.17 in 10.0 mi South 11.5 mph 19.6 mph N/A   Scattered Clouds
9:52 AM 77.0 °F - 66.0 °F 69% 30.10 in 10.0 mi SSE 12.7 mph - N/A   Scattered Clouds
10:52 AM 80.1 °F 81.9 °F 64.9 °F 60% 30.11 in 10.0 mi SSE 10.4 mph - N/A   Partly Cloudy
11:17 AM 80.6 °F 82.3 °F 64.4 °F 58% 30.18 in 10.0 mi SSE 12.7 mph - N/A   Mostly Cloudy
11:28 AM 80.6 °F 82.3 °F 64.4 °F 58% 30.18 in 10.0 mi South 11.5 mph - N/A   Scattered Clouds
11:52 AM 84.0 °F 85.8 °F 64.9 °F 53% 30.09 in 10.0 mi South 13.8 mph 18.4 mph N/A   Mostly Cloudy
12:52 PM 84.9 °F 86.6 °F 64.9 °F 51% 30.07 in 10.0 mi South 9.2 mph - N/A   Mostly Cloudy
1:52 PM 87.1 °F 88.3 °F 64.0 °F 46% 30.05 in 10.0 mi SE 13.8 mph 21.9 mph N/A   Mostly Cloudy
2:52 PM 90.0 °F 90.0 °F 61.0 °F 38% 30.02 in 10.0 mi SSE 11.5 mph 25.3 mph N/A   Scattered Clouds
3:52 PM 91.0 °F 90.0 °F 57.9 °F 33% 30.00 in 10.0 mi South 13.8 mph 19.6 mph N/A   Partly Cloudy
4:52 PM 91.0 °F 89.2 °F 55.9 °F 30% 29.99 in 10.0 mi SSE 12.7 mph - N/A   Partly Cloudy
5:52 PM 91.9 °F 89.5 °F 53.1 °F 27% 29.97 in 10.0 mi SE 15.0 mph 19.6 mph N/A   Clear
6:52 PM 90.0 °F 87.5 °F 53.1 °F 28% 29.97 in 10.0 mi SE 15.0 mph - N/A   Clear
7:52 PM 84.9 °F 83.2 °F 53.1 °F 33% 29.98 in 10.0 mi SE 8.1 mph - N/A   Clear
8:52 PM 82.0 °F 81.4 °F 55.0 °F 39% 30.00 in 10.0 mi ESE 6.9 mph - N/A   Clear
9:52 PM 79.0 °F - 54.0 °F 42% 30.02 in 10.0 mi ESE 8.1 mph - N/A   Clear
10:52 PM 75.9 °F - 54.0 °F 46% 30.02 in 10.0 mi SE 6.9 mph - N/A   Clear
11:52 PM 73.9 °F - 55.0 °F 52% 30.01 in 10.0 mi SE 6.9 mph - N/A   Clear